#timestamp,LO_Frequency,Hit,StdDev 
1510513215.5,286046998.6,N
1510513235.4,286046995.3,N
1510513255.2,286046999.5,N
1510513275.0,286046995.8,N
1510513275.9,286046995.8,N
1510513295.8,286046995.1,N
1510513315.6,286046998.7,N
1510513335.4,286047001.9,N
1510513355.3,286046996.9,N
1510513375.1,286046998.9,N
1510513376.0,286046998.9,N
1510513395.8,286046995.2,N
1510513415.7,286046994.3,N
1510513435.5,286046991.8,N
1510513455.3,286046989.4,Y
1510513475.2,286046991.7,P
1510513495.9,286046990.2,P
1510513515.7,286046993.8,N
1510513535.5,286046995.6,N
1510513555.4,286046996.2,N
1510513575.2,286046994.9,N
1510513595.0,286046995.4,N
1510513595.9,286046995.4,N
1510513615.8,286046997.4,N
1510513635.6,286047000.6,N
1510513655.4,286047001.4,N
1510513675.3,286047003.5,N
1510513695.1,286047003.8,N
1510513696.0,286047003.8,N
1510513715.8,286047005.2,N
1510513735.7,286047007.1,N
1510513755.5,286047005.1,N
1510513775.3,286047006.2,N
1510513795.2,286047008.7,N
1510513815.9,286047005.6,N
1510513835.7,286047003.3,N
1510513855.5,286047001.9,N
1510513875.4,286047004.2,N
1510513895.2,286047009.0,N
1510513915.0,286047007.8,N
1510513915.9,286047007.8,N
1510513935.8,286047007.0,N
1510513955.6,286047009.1,N
1510513975.4,286047008.9,N
1510513995.3,286047006.5,N
1510514015.1,286047006.2,N
1510514016.0,286047006.2,N
1510514035.8,286047008.4,N
1510514055.7,286047008.6,N
1510514075.5,286047007.8,N
1510514095.3,286047008.5,N
1510514115.2,286047012.0,Y
1510514135.9,286047004.6,P
1510514155.7,286047009.2,P
1510514175.6,286047004.9,N
1510514195.4,286047004.8,N
1510514215.2,286047007.3,Y
1510514235.1,286047000.6,P
1510514236.0,286047000.6,N
1510514255.8,286046999.9,N
1510514275.6,286046999.9,N
1510514295.5,286046999.8,N
1510514315.3,286047003.2,N
1510514335.1,286047005.0,N
1510514355.8,286047002.3,N
1510514375.7,286047007.6,Y
1510514395.5,286047003.5,P
1510514415.3,286047004.5,P
1510514435.2,286047003.0,N
1510514455.0,286047005.7,Y
1510514455.9,286047005.7,P
1510514475.8,286047003.5,N
1510514495.6,286047005.1,P
1510514515.4,286047000.9,N
1510514535.2,286046998.5,N
1510514555.1,286047000.8,N
1510514556.0,286047000.8,N
1510514575.8,286046998.9,N
1510514595.6,286047002.4,N
1510514615.5,286047007.3,Y
1510514635.3,286047000.9,P
1510514655.1,286046998.0,P
1510514675.9,286046996.0,N
1510514695.7,286046992.7,Y
1510514715.5,286046988.7,P
1510514735.4,286046989.8,N
1510514755.2,286046988.2,N
1510514775.0,286046985.5,Y
1510514775.9,286046985.5,P
1510514795.8,286046996.6,N
1510514815.6,286046996.7,N
1510514835.4,286046995.3,N
1510514855.3,286046995.0,N
1510514875.1,286046991.8,N
1510514895.8,286046993.5,N
1510514915.7,286046988.6,Y
1510514935.5,286046998.1,P
1510514955.3,286046996.5,N
1510514975.2,286047000.6,N
1510514995.9,286046998.5,N
1510515015.7,286047001.9,N
1510515035.6,286047001.8,N
1510515055.4,286047002.6,N
1510515075.2,286047004.2,N
1510515095.0,286047004.4,N
1510515095.9,286047004.4,N
1510515115.8,286047003.9,N
1510515135.6,286047003.6,N
1510515155.4,286047006.8,N
1510515175.3,286047004.8,N
1510515195.1,286047003.5,N
1510515215.8,286047006.9,N
1510515235.7,286047007.1,N
1510515255.5,286047007.1,N
1510515275.3,286047007.0,N
1510515295.2,286047004.7,N
1510515315.9,286047006.8,N
1510515335.7,286047009.0,N
1510515355.6,286047008.6,N
1510515375.4,286047008.1,N
1510515395.2,286047010.6,N
1510515415.0,286047008.3,N
1510515415.9,286047008.3,N
1510515435.8,286047011.7,N
1510515455.6,286047004.5,N
1510515475.4,286047005.8,N
1510515495.3,286047005.7,N
1510515515.1,286047004.7,N
1510515535.8,286047005.0,N
1510515555.7,286047004.7,N
1510515575.5,286047005.0,N
1510515595.3,286047004.7,N
1510515615.2,286047005.3,N
1510515635.9,286047005.0,N
1510515655.7,286047006.3,Y
1510515675.6,286046998.4,P
1510515695.4,286047002.5,N
1510515715.2,286047001.5,N
1510515735.1,286047002.1,N
1510515736.0,286047002.1,N
1510515755.8,286047002.5,N
1510515775.6,286046999.7,N
1510515795.4,286047003.2,N
1510515815.3,286047006.0,N
1510515835.1,286047003.1,N
1510515855.8,286047004.9,N
1510515875.7,286047004.6,N
1510515895.5,286047007.0,Y
1510515915.3,286047004.2,P
1510515935.2,286047004.1,P
1510515955.0,286047007.5,P
1510515955.9,286047007.5,Y
1510515975.7,286047001.8,P
1510515995.6,286047007.4,P
1510516015.4,286047009.4,P
1510516035.2,286047011.1,Y
1510516055.1,286047004.5,P
1510516056.0,286047004.5,P
1510516075.8,286047005.1,P
1510516095.7,286047005.7,Y
1510516115.5,286047000.5,P
1510516135.3,286046997.7,N
1510516155.1,286046995.2,N
1510516175.9,286046997.0,N
1510516195.7,286046998.0,N
1510516215.5,286046998.5,N
1510516235.4,286047002.8,N
1510516255.2,286047003.9,N
1510516275.0,286047000.6,N
1510516275.9,286047000.6,N
1510516295.8,286047001.8,N
1510516315.6,286047002.4,N
1510516335.4,286047003.5,N
1510516355.3,286047005.5,N
1510516375.1,286047005.1,N
1510516376.0,286047005.1,N
1510516395.8,286047003.4,N
1510516415.6,286047004.9,N
1510516435.5,286047002.9,N
1510516455.3,286047001.4,N
1510516475.1,286047002.1,N
1510516495.9,286047000.0,N
1510516515.7,286046995.7,N
1510516535.5,286046991.9,N
1510516555.4,286046989.8,N
1510516575.2,286046989.8,N
1510516595.0,286046986.0,Y
1510516595.9,286046986.0,P
1510516615.8,286046986.4,N
1510516635.6,286046980.5,N
1510516655.4,286046984.0,N
1510516675.3,286046983.8,N
1510516695.1,286046980.5,Y
1510516715.8,286046996.0,P
1510516735.7,286046994.3,N
1510516755.5,286046995.6,N
1510516775.3,286046993.9,N
1510516795.2,286046991.4,N
